Regional Weather Roundup
Issued by NWS Charleston, WV

Home | Current Version | Previous Version | Graphics & Text | Print | Product List | Glossary On
Versions: 1 2 3 4 5 6 7 8 9 10 11 12 13 14 15 16 17 18 19 20 21 22 23 24 25 26 27 28 29 30 31 32 33 34 35 36 37 38 39 40 41 42 43 44 45 46 47 48 49 50
000
ASUS41 KRLX 220810
RWRRLX
West Virginia Regional Weather Roundup
National Weather Service Charleston WV
300 AM EST WED FEB 22 2017

Note: "fair" indicates few or no clouds below 12,000 feet with no
significant weather and/or obstructions to visibility.

WVZ003-220900-
Northern Panhandle of West Virginia

CITY           SKY/WX    TMP DP  RH WIND       PRES   REMARKS
WHEELING       CLOUDY    58  42  55 S5        29.93F
$$

WVZ009-220900-
Northwest West Virginia

CITY           SKY/WX    TMP DP  RH WIND       PRES   REMARKS
PARKERSBURG    CLOUDY    57  43  59 CALM      29.96F
$$

WVZ006-220900-
Western West Virginia

CITY           SKY/WX    TMP DP  RH WIND       PRES   REMARKS
HUNTINGTON     LGT RAIN  56  54  93 SW3       29.95S
$$

WVZ015-220900-
West Central West Virginia

CITY           SKY/WX    TMP DP  RH WIND       PRES   REMARKS
CHARLESTON     LGT RAIN  57  46  66 CALM      29.97R
$$

WVZ022-031-220900-
North Central West Virginia

CITY           SKY/WX    TMP DP  RH WIND       PRES   REMARKS
CLARKSBURG     CLOUDY    54  41  61 CALM      29.96S
MORGANTOWN     CLOUDY    58  38  47 CALM      29.96S
$$

WVZ025-035-042-045-220900-
Southern West Virginia

CITY           SKY/WX    TMP DP  RH WIND       PRES   REMARKS
BECKLEY        LGT RAIN  48  42  80 S8        30.01F
LOGAN          CLOUDY    55  46  71 CALM      29.97F
BLUEFIELD      CLOUDY    49  38  65 CALM      30.02F
LEWISBURG      LGT RAIN  44  43  97 CALM      30.03F
$$

WVZ047-220900-
Northern Mountains of West Virginia

CITY           SKY/WX    TMP DP  RH WIND       PRES   REMARKS
ELKINS         CLOUDY    50  37  61 SE5       29.99F
$$

WVZ052-220900-
Eastern Panhandle of West Virginia

CITY           SKY/WX    TMP DP  RH WIND       PRES   REMARKS
MARTINSBURG    CLOUDY    43  35  73 CALM      30.00F
PETERSBURG     PTCLDY    47  42  84 CALM      30.00S
$$



USA.gov is the U.S. government's official web portal to all federal, state and local government web resources and services.